This is the latest recevied weather packets stored in our database for station/object F4GSP-4. If no packets are shown the sender has not sent any weather packets the latest 10 day(s).
| Time | Temp. | Humidity | Pressure | Rain* | Wind** | Luminosity | Snow |
|---|---|---|---|---|---|---|---|
| 1778148505 | 16.67° C | 57% | 1023.1 hPa | - | - | - | - |
| 1778147605 | 16.11° C | 57% | 1023.2 hPa | - | - | - | - |
| 1778146705 | 16.11° C | 58% | 1023.2 hPa | - | - | - | - |
| 1778145805 | 15° C | 59% | 1023.4 hPa | - | - | - | - |
| 1778144905 | 13.89° C | 59% | 1023.4 hPa | - | - | - | - |
| 1778144905 | 13.89° C | 59% | 1023.4 hPa | - | - | - | - |
| 1778144005 | 13.33° C | 60% | 1023.5 hPa | - | - | - | - |
| 1778143104 | 12.22° C | 60% | 1023.6 hPa | - | - | - | - |
| 1778142204 | 11.67° C | 60% | 1023.7 hPa | - | - | - | - |
| 1778141304 | 10.56° C | 60% | 1023.8 hPa | - | - | - | - |
| 1778140404 | 10° C | 61% | 1023.9 hPa | - | - | - | - |
| 1778139504 | 9.44° C | 61% | 1024.2 hPa | - | - | - | - |
| 1778138604 | 8.33° C | 61% | 1024.2 hPa | - | - | - | - |
| 1778137703 | 7.78° C | 61% | 1024.2 hPa | - | - | - | - |
| 1778136803 | 7.22° C | 61% | 1024.4 hPa | - | - | - | - |
| 1778135903 | 6.67° C | 61% | 1024.3 hPa | - | - | - | - |
| 1778135003 | 6.11° C | 61% | 1024.4 hPa | - | - | - | - |
| 1778134103 | 6.11° C | 61% | 1024.4 hPa | - | - | - | - |
| 1778133203 | 5.56° C | 61% | 1024.4 hPa | - | - | - | - |
| 1778132303 | 5.56° C | 61% | 1024.4 hPa | - | - | - | - |
| 1778131402 | 5° C | 61% | 1024.2 hPa | - | - | - | - |
| 1778130502 | 5° C | 61% | 1024 hPa | - | - | - | - |
| 1778129602 | 4.44° C | 61% | 1024 hPa | - | - | - | - |
| 1778128702 | 4.44° C | 61% | 1023.9 hPa | - | - | - | - |
| 1778127802 | 5° C | 61% | 1023.9 hPa | - | - | - | - |
* Rain since midnight (hover to see other rain measurements)
** Current wind speed in m/s (hover to see current wind gust speed)